Location: Vancouver
(49.2500°N, 123.1330°W)
Time: 22:57:34
(UTC-07:00)

Transit 2A Rocket - Visible Passes

Search period start: 27 May 2015 00:00
Search period end: 06 June 2015 00:00
Orbit: 586 x 919 km, 66.7° (Epoch: 26 May)

Date Brightness Start Highest point End Pass type
(mag) Time Alt. Az. Time Alt. Az. Time Alt. Az.
27 May 7.2 00:31:52 10° W 00:33:42 12° WSW 00:35:13 10° WSW visible
27 May 5.1 22:04:26 10° NW 22:09:58 74° NE 22:14:36 12° SE visible
27 May 6.8 23:48:11 10° WNW 23:51:59 20° WSW 23:54:32 14° SW visible
28 May 6.2 23:05:27 10° NW 23:10:11 32° WSW 23:13:35 15° SSW visible
29 May 5.5 22:23:02 10° NW 22:28:18 51° WSW 22:32:41 12° SSE visible
30 May 5.1 21:40:47 10° NW 21:46:17 82° SW 21:51:11 10° SSE visible
30 May 7.2 23:25:27 10° WNW 23:28:00 13° WSW 23:30:13 10° SW visible
31 May 6.8 22:42:11 10° WNW 22:46:15 22° WSW 22:49:57 10° SSW visible
01 Jun 6.1 21:59:33 10° NW 22:04:26 36° WSW 22:08:50 10° S visible
03 Jun 7.2 22:19:13 10° WNW 22:22:17 15° WSW 22:25:00 10° SW visible
